Location: Aciu?a
(46.2833°N, 22.4500°E)
Time: 05:50:05
(UTC+00:00)

FALCON 9 DEB - Pass Details

Date: 25 October 2021
Orbit: 336 x 348 km, 53.0° (Epoch: 04 December)

Event Time Altitude Azimuth Distance (km) Brightness Sun altitude
Rises 17:00:18 0° 219° (SW) 2,165 7.3 -16.8°
Reaches altitude 10° 17:02:22 10° 211° (SSW) 1,331 6.0 -17.2°
Enters shadow 17:04:43 35° 165° (SSE) 606 3.7 -17.6°
